This is the latest recevied weather packets stored in our database for station/object KE8RXN. If no packets are shown the sender has not sent any weather packets the latest 10 day(s).
| Time | Temp. | Humidity | Pressure | Rain* | Wind** | Luminosity | Snow |
|---|---|---|---|---|---|---|---|
| 1778022793 | 10.56° C | 44% | 1012.1 hPa | 0 mm | - | 60 W/m² | - |
| 1778022491 | 10.56° C | 45% | 1012.1 hPa | 0 mm | - | 59 W/m² | - |
| 1778022188 | 10.56° C | 44% | 1012 hPa | 0 mm | - | 72 W/m² | - |
| 1778021884 | 10.56° C | 44% | 1012 hPa | 0 mm | - | 78 W/m² | - |
| 1778021581 | 11.11° C | 44% | 1012.1 hPa | 0 mm | - | 69 W/m² | - |
| 1778021276 | 11.11° C | 44% | 1012.2 hPa | 0 mm | - | 71 W/m² | - |
| 1778020974 | 11.11° C | 45% | 1012.1 hPa | 0 mm | - | 85 W/m² | - |
| 1778020671 | 10.56° C | 45% | 1012.2 hPa | 0 mm | - | 95 W/m² | - |
| 1778020367 | 11.11° C | 44% | 1012 hPa | 0 mm | - | 100 W/m² | - |
| 1778020063 | 11.11° C | 45% | 1012.1 hPa | 0 mm | - | 85 W/m² | - |
| 1778019760 | 11.11° C | 45% | 1012 hPa | 0 mm | - | 91 W/m² | - |
| 1778019457 | 11.11° C | 44% | 1012.1 hPa | 0 mm | - | 116 W/m² | - |
| 1778019154 | 11.11° C | 46% | 1012.1 hPa | 0 mm | - | 114 W/m² | - |
| 1778018850 | 11.11° C | 45% | 1012 hPa | 0 mm | - | 111 W/m² | - |
| 1778018548 | 11.11° C | 45% | 1012.1 hPa | 0 mm | - | 108 W/m² | - |
| 1778018246 | 11.11° C | 44% | 1012 hPa | 0 mm | - | 107 W/m² | - |
| 1778017944 | 11.11° C | 44% | 1012 hPa | 0 mm | - | 110 W/m² | - |
| 1778017641 | 11.11° C | 44% | 1012 hPa | 0 mm | - | 120 W/m² | - |
| 1778017339 | 11.11° C | 44% | 1012 hPa | 0 mm | - | 133 W/m² | - |
| 1778017036 | 11.67° C | 43% | 1012.2 hPa | 0 mm | - | 154 W/m² | - |
| 1778016733 | 11.67° C | 44% | 1012.1 hPa | 0 mm | - | 155 W/m² | - |
| 1778016429 | 11.67° C | 44% | 1012.1 hPa | 0 mm | - | 215 W/m² | - |
| 1778016126 | 11.11° C | 44% | 1011.9 hPa | 0 mm | - | 181 W/m² | - |
| 1778015823 | 11.67° C | 44% | 1011.9 hPa | 0 mm | - | 150 W/m² | - |
| 1778015520 | 11.67° C | 44% | 1012.2 hPa | 0 mm | - | 183 W/m² | - |
* Rain latest hour (hover to see other rain measurements)
** Current wind speed in m/s (hover to see current wind gust speed)